Weather Roundup
Issued by NWS Springfield, MO

Home | Current Version | Previous Version | Text Only | Print | Product List | Glossary On
Versions: 1 2 3 4 5 6 7 8 9 10 11 12 13 14 15 16 17 18 19 20 21 22 23 24 25 26 27 28 29 30 31 32 33 34 35 36 37 38 39 40 41 42 43 44 45 46 47 48 49 50
000
NZUS99 KSGF 291907
HRRSGF

HOURLY WEATHER
NATIONAL WEATHER SERVICE SPRINGFIELD MO
200 PM CDT TUE JUL 29 2014

......SGF CWA......

CITY           SKY/WX    TMP DP  RH WIND       PRES   REMARKS
SPRINGFIELD    MOSUNNY   82  54  37 NW9       30.16F
JOPLIN         PTSUNNY   84  56  38 W8        30.17S
WEST PLAINS    CLOUDY    78  55  44 N6        30.17F
ROLLA          PTSUNNY   78  52  40 NW7G16    30.14F
OSAGE BEACH    MOSUNNY   81  54  39 N10       30.15F
BRANSON        MOSUNNY   84  54  34 NW6       30.18F

......SURROUNDING SGF CWA......

CITY           SKY/WX    TMP DP  RH WIND       PRES   REMARKS
CHANUTE        CLOUDY    73  60  63 N7        30.19S
PARSONS        CLOUDY    79  59  50 N3        30.18F
COFFEYVILLE    PTSUNNY   81  61  50 NW5       30.16F
EMPORIA        PTSUNNY   72  60  66 NE5       30.19F
GROVE OK       PTSUNNY   81  59  47 N3        30.17S
ROGERS AR      MOSUNNY   81  57  43 NW9       30.18F
SILOAM SPRINGS SUNNY     81  57  44 NW5       30.18S
HARRISON AR    SUNNY     79  54  41 SE6       30.18S
NEAR YELLVILLE SUNNY     81  52  36 E3        30.16S

......KANSAS AND MISSOURI......

CITY           SKY/WX    TMP DP  RH WIND       PRES   REMARKS
KANSAS CTY INT PTSUNNY   80  57  45 VRB7      30.17F
DOWNTOWN KC    MOSUNNY   80  55  42 NW7       30.15F
COLUMBIA       MOSUNNY   78  55  44 VRB6      30.16F
SEDALIA        MOSUNNY   81  60  48 NW10      30.16F
ST JOSEPH      MOSUNNY   79  59  50 NW7       30.16F
ST LOUIS       MOSUNNY   77  55  46 NW9       30.14F
SPIRIT OF STL  PTSUNNY   80  52  37 N12       30.12F
KIRKSVILLE     MOSUNNY   78  54  43 CALM      30.16F
WICHITA        MOSUNNY   88  60  38 VRB3      30.14F
TOPEKA         PTSUNNY   81  57  43 VRB6      30.17F
OLATHE         PTSUNNY   80  55  42 NW8       30.16F

......TENNESSEE......

CITY           SKY/WX    TMP DP  RH WIND       PRES   REMARKS
MEMPHIS        MOSUNNY   80  54  40 VRB7      30.12F
NASHVILLE      MOSUNNY   78  51  38 N12G22    30.10F

......ARKANSAS.......

CITY           SKY/WX    TMP DP  RH WIND       PRES   REMARKS
FAYETTEVILLE   MOSUNNY   82  58  43 W8        30.16F
FT SMITH       SUNNY     87  60  40 MISG      30.12F
LITTLE ROCK    MOSUNNY   83  57  41 E3        30.13F

......OKLAHOMA.......

CITY           SKY/WX    TMP DP  RH WIND       PRES   REMARKS
TULSA          MOSUNNY   89  59  36 VRB6      30.12F
PONCA CITY     SUNNY     88  61  40 SE3       30.13F
MCALESTER      SUNNY     90  61  37 N3        30.14F HX  90
OKLAHOMA CITY  PTSUNNY   89  55  31 SW9       30.16F

......IOWA............

CITY           SKY/WX    TMP DP  RH WIND       PRES   REMARKS
DES MOINES     MOSUNNY   75  51  43 N7        30.15F
QUAD CITIES    MOSUNNY   80  54  40 NW10      30.09

......ILLINOIS........

CITY           SKY/WX    TMP DP  RH WIND       PRES   REMARKS
QUINCY         MOSUNNY   76  53  44 VRB5      30.14F
CHICAGO        PTSUNNY   80  51  36 NW12G20   30.01F




USA.gov is the U.S. government's official web portal to all federal, state and local government web resources and services.